Little Rock AFB, AR

12:57 PM CDT on October 17, 2017 (GMT -0500)
Little Rock Air Force Base

Weather History for KLRF - February, 2013

Change the Weather History Date:

Saturday, February 16, 2013

  Actual Average Record
Temperature  
Mean Temperature 34 °F -  
Max Temperature 43 °F 55 °F 65 °F (2016)
Min Temperature 25 °F 34 °F 21 °F (2015)
Degree Days  
Heating Degree Days 31    
Moisture  
Dew Point 19 °F    
Average Humidity 52    
Maximum Humidity 76    
Minimum Humidity 31    
Precipitation  
Precipitation 0.00 in - - ()
Sea Level Pressure  
Sea Level Pressure 30.29 in    
Wind  
Wind Speed 6 mph (WNW)    
Max Wind Speed 15 mph    
Max Gust Speed 18 mph    
Visibility 10 miles    
Events      
Averages and records for this station are not official NWS values.
T = Trace of Precipitation, MM = Missing Value Source: NWS Daily Summary

Daily Weather History Graph

Daily Weather History Graph

Search for Another Location

Airport or City:

Trip Planner

Search our weather history database for the weather conditions in past years. The results will help you decide how hot, cold, wet, or windy it might be!

Date:

Astronomy

Feb. 16, 2013 Rise Set
Actual Time 6:53 AM CST 5:52 PM CST
Civil Twilight 6:27 AM CST 6:18 PM CST
Nautical Twilight 5:57 AM CST 6:48 PM CST
Astronomical Twilight 5:28 AM CST 7:17 PM CST
Moon 10:23 AM CST (2/16) No Moon Set
Length of Visible Light 11h 51m
Length of Day
10h 59m
Waxing Crescent, 39% of the Moon is Illuminated
Feb 16
Waxing Crescent
Feb 17
First Quarter
Feb 25
Full
Mar 4
Last Quarter
Mar 11
New

Hourly Weather History & Observations

Time (CST) Temp. Windchill Dew Point Humidity Pressure Visibility Wind Dir Wind Speed Gust Speed Precip Events Conditions
12:58 AM 34.0 °F 29.8 °F 15.4 °F 47% 30.31 in 10.0 mi WNW 4.6 mph - N/A   Clear
1:58 AM 28.9 °F 23.9 °F 18.0 °F 64% 30.30 in 10.0 mi West 4.6 mph - N/A   Clear
2:58 AM 26.2 °F - 19.6 °F 76% 30.30 in 10.0 mi West 2.3 mph - N/A   Clear
3:58 AM 25.3 °F 19.7 °F 18.1 °F 74% 30.29 in 10.0 mi WSW 4.6 mph - N/A   Clear
4:58 AM 28.6 °F 23.5 °F 18.7 °F 66% 30.30 in 10.0 mi WNW 4.6 mph - N/A   Mostly Cloudy
5:58 AM 27.3 °F 23.4 °F 20.3 °F 75% 30.29 in 10.0 mi WSW 3.5 mph - N/A   Mostly Cloudy
6:58 AM 31.3 °F 26.6 °F 19.4 °F 61% 30.30 in 10.0 mi WNW 4.6 mph - N/A   Mostly Cloudy
7:58 AM 32.2 °F 26.7 °F 19.4 °F 59% 30.30 in 10.0 mi West 5.8 mph - N/A   Partly Cloudy
8:58 AM 37.0 °F 28.9 °F 21.2 °F 53% 30.31 in 10.0 mi NW 12.7 mph 17.3 mph N/A   Clear
9:32 AM 37.4 °F 28.9 °F 21.2 °F 52% 30.30 in 10.0 mi NNW 13.8 mph - N/A   Clear
9:58 AM 37.6 °F 32.3 °F 19.8 °F 49% 30.33 in 10.0 mi WNW 6.9 mph 18.4 mph N/A   Partly Cloudy
10:58 AM 38.1 °F 29.5 °F 19.4 °F 47% 30.35 in 10.0 mi NW 15.0 mph - N/A   Mostly Cloudy
11:58 AM 38.7 °F 31.8 °F 19.8 °F 47% 30.34 in 10.0 mi NW 10.4 mph - N/A   Mostly Cloudy
12:06 PM 39.2 °F 31.6 °F 19.4 °F 45% 30.32 in 10.0 mi North 12.7 mph 18.4 mph N/A   Light Drizzle
12:09 PM 39.2 °F 32.0 °F 19.4 °F 45% 30.31 in 10.0 mi NW 11.5 mph 18.4 mph N/A   Light Drizzle
12:16 PM 39.2 °F 32.0 °F 19.4 °F 45% 30.31 in 10.0 mi NW 11.5 mph - N/A   Partly Cloudy
12:58 PM 41.4 °F 38.4 °F 16.7 °F 37% 30.31 in 10.0 mi Variable 4.6 mph - 0.00 in   Partly Cloudy
1:58 PM 42.3 °F 36.3 °F 17.6 °F 37% 30.29 in 10.0 mi North 10.4 mph - N/A   Clear
2:58 PM 43.2 °F 37.0 °F 16.9 °F 35% 30.28 in 10.0 mi WNW 11.5 mph 18.4 mph N/A   Partly Cloudy
3:58 PM 43.2 °F 39.0 °F 14.5 °F 31% 30.27 in 10.0 mi Variable 6.9 mph - N/A   Clear
4:58 PM 43.2 °F 39.0 °F 15.4 °F 33% 30.27 in 10.0 mi West 6.9 mph - N/A   Clear
5:58 PM 39.2 °F - 17.6 °F 42% 30.26 in 10.0 mi Calm Calm - N/A   Clear
6:58 PM 36.3 °F - 23.4 °F 59% 30.26 in 10.0 mi SE 1.2 mph - N/A   Overcast
7:58 PM 36.3 °F - 25.9 °F 66% 30.25 in 10.0 mi Calm Calm - N/A   Overcast
8:58 PM 37.0 °F - 25.5 °F 63% 30.26 in 10.0 mi South 2.3 mph - N/A   Overcast
9:58 PM 38.8 °F 34.6 °F 20.1 °F 47% 30.27 in 10.0 mi SSE 5.8 mph - N/A   Overcast
10:58 PM 38.7 °F 34.3 °F 20.5 °F 48% 30.25 in 10.0 mi SSE 5.8 mph - N/A   Overcast
11:58 PM 38.5 °F 34.1 °F 20.5 °F 48% 30.25 in 10.0 mi South 5.8 mph - N/A   Overcast